Location: Lecco
(45.8566°N, 9.3977°E)
Time: 07:12:28
(UTC+02:00)

Altair - Pass Details

Date: 21 August 2020
Orbit: 1501 x 1682 km, 47.2° (Epoch: 25 September)

Event Time Altitude Azimuth Distance (km) Brightness Sun altitude
Rises 08:43:29 0° 290° (WNW) 4,708 9.5 22.1°
Reaches altitude 10° 08:47:27 10° 276° (W) 3,697 9.0 22.8°
Maximum altitude 08:53:55 22° 231° (SW) 2,848 8.7 23.9°
Drops below altitude 10° 09:00:20 10° 186° (S) 3,642 9.6 25.0°
Sets 09:04:14 0° 171° (S) 4,620 10.2 25.6°
